Location: Rounton
(54.4000°N, 1.3500°W)
Time: 17:23:38
(UTC+01:00)

Envisat - Visible Passes

Search period start: 17 August 2022 00:00
Search period end: 27 August 2022 00:00
Orbit: 763 x 765 km, 98.2° (Epoch: 16 August)

Date Brightness Start Highest point End Pass type
(mag) Time Alt. Az. Time Alt. Az. Time Alt. Az.
17 Aug 5.7 04:13:22 10° NE 04:16:31 16° E 04:19:39 10° SE visible
19 Aug 5.2 04:37:48 10° NE 04:41:59 25° E 04:46:08 10° SE visible
20 Aug 5.8 04:02:08 10° NE 04:04:31 13° E 04:06:54 10° ESE visible
21 Aug 4.5 05:02:36 10° NNE 05:07:21 38° E 05:12:04 10° SSE visible
22 Aug 5.5 04:26:15 10° NE 04:30:01 21° E 04:33:47 10° SE visible
23 Aug 6.0 03:51:28 10° ENE 03:52:29 11° E 03:53:30 10° E visible
24 Aug 4.9 04:50:54 10° NNE 04:55:26 31° E 04:59:56 10° SSE visible
25 Aug 5.6 04:14:46 10° NE 04:18:03 17° E 04:21:19 10° SE visible
26 Aug 4.1 05:15:48 10° NNE 05:20:45 48° E 05:25:40 10° S visible
